GEFSMW_500_meanwind_180.txt.gz
Wind_Speed
7 8 8 8 7 6 5 5 4 3 2 2 1 1 1 1 2 3 4 5 5 5 6 6 6 5 5 4 4 4 3 2 2 2 2 3 3 4 5 6 6 6 6
8 9 8 7 7 6 6 5 4 4 3 2 1 1 1 1 1 2 3 4 5 5 5 5 5 5 5 5 4 4 3 2 2 1 1 1 3 3 4 5 6 6 6
9 9 8 8 8 7 7 6 5 4 4 3 2 1 1 1 1 1 2 3 4 5 5 5 5 5 5 5 5 4 3 2 2 1 0 1 2 3 4 4 5 5 6
9 9 9 9 9 8 8 7 6 5 4 4 3 2 1 0 1 1 2 2 3 4 5 5 5 5 5 5 5 4 4 3 2 1 1 1 2 3 4 4 5 5 5
9 9 9 10 9 9 8 8 7 6 5 4 3 2 1 1 1 1 2 2 3 3 4 5 4 4 5 5 4 4 4 3 3 3 2 1 0 2 3 4 4 5 5
10 10 10 10 10 9 9 9 8 7 6 5 4 3 3 2 1 1 1 1 2 3 4 4 4 4 5 5 5 4 4 3 3 3 2 1 1 1 2 3 4 5 5
10 10 10 10 10 9 9 9 9 8 7 6 5 5 4 3 2 1 1 0 1 2 3 3 4 4 5 5 5 5 4 4 4 3 2 2 2 2 2 3 3 4 5
10 10 10 10 10 10 9 9 10 9 8 7 6 6 5 4 4 2 2 1 1 1 2 2 3 3 4 4 4 4 4 4 4 4 3 3 2 2 2 3 4 4 5
11 11 11 10 10 10 10 10 9 9 8 8 7 6 6 6 5 4 3 2 2 2 2 1 1 2 3 4 4 4 5 5 5 4 3 3 3 3 3 4 4 5 5
11 11 11 11 11 11 11 11 9 9 9 7 7 7 7 7 6 6 5 4 3 2 3 3 3 3 3 3 4 4 5 5 5 5 4 4 4 4 5 5 6 6 6
10 10 11 11 11 11 11 11 11 10 9 8 8 7 8 8 7 7 6 6 5 5 5 5 4 5 5 5 5 5 5 5 6 5 5 6 6 7 7 7 8 8 8
8 8 9 10 11 11 10 11 10 10 9 8 8 8 9 9 9 8 8 8 7 7 7 6 6 6 6 7 7 6 6 7 7 7 8 8 8 8 9 9 9 10 10
8 8 9 10 10 10 10 10 10 10 10 9 9 9 9 9 9 9 9 9 8 8 9 8 8 8 8 8 8 8 9 9 9 9 9 10 10 10 10 10 11 12 13
9 9 9 9 9 10 10 10 10 10 10 10 10 9 9 10 10 11 11 10 10 10 10 10 10 10 10 10 10 10 10 10 11 11 11 12 11 12 12 13 13 14 15
10 10 9 9 10 10 10 10 10 10 10 11 10 10 10 10 11 11 12 12 12 12 11 12 12 12 12 12 12 12 12 13 13 13 14 14 14 14 14 15 16 16 17
10 10 10 10 10 10 10 10 10 11 11 11 11 11 11 11 12 12 12 13 13 13 13 14 14 14 14 14 14 14 14 15 15 15 15 16 16 16 17 17 18 19 20
10 10 11 11 10 11 11 10 11 11 11 12 12 13 13 13 13 13 13 14 14 15 15 15 16 16 16 16 16 16 16 16 16 16 17 17 17 18 18 19 20 21 21
11 12 12 12 12 11 12 12 12 12 13 13 13 14 14 15 15 14 15 15 15 16 16 17 17 17 18 18 18 18 18 18 19 19 19 19 19 19 20 21 21 22 22
12 12 12 13 13 13 13 13 14 14 15 14 15 15 16 16 15 15 16 16 16 17 17 18 19 19 19 19 19 20 20 20 21 20 20 20 21 21 21 22 22 23 24
13 13 13 13 14 14 14 14 15 15 16 16 16 17 17 16 16 17 17 17 17 17 18 19 19 19 20 20 20 21 21 21 21 22 22 22 23 23 23 23 24 25 26
13 13 13 14 15 15 15 15 15 15 16 16 17 17 17 17 17 18 18 19 19 19 19 20 20 21 21 21 21 22 22 21 22 23 24 24 25 25 26 25 26 27 27
13 13 14 15 15 15 15 16 16 16 17 17 18 17 17 17 18 18 19 19 20 20 20 21 21 21 21 21 22 22 23 23 23 24 25 26 26 27 27 28 28 28 29
14 14 15 15 15 15 15 15 16 17 18 18 18 19 19 18 19 20 20 20 21 21 21 22 22 22 22 22 23 24 24 25 25 26 26 27 27 28 29 29 30 31 32
15 15 15 15 15 15 15 15 16 17 18 19 19 20 20 20 20 21 21 21 22 22 22 23 23 23 23 24 24 25 25 26 26 27 28 28 29 30 31 32 33 33 34
16 16 15 15 15 15 16 16 17 17 18 18 19 19 20 20 21 21 21 22 22 23 23 23 24 24 25 25 26 26 27 28 28 29 29 30 31 32 32 33 34 35 36
16 16 16 16 16 16 16 16 16 17 17 18 19 19 19 20 20 20 21 22 23 24 24 24 24 25 26 27 28 28 28 29 29 30 30 31 31 32 34 35 36 37 38

GEFSMW_500_meanwind_186.txt.gz
Wind_Speed
8 8 8 8 8 8 8 7 7 6 5 4 4 3 2 2 2 1 1 2 2 2 3 3 3 3 3 3 2 2 2 1 1 2 3 4 4 5 5 6 6 6 7
8 7 8 8 8 8 8 8 7 6 5 5 4 4 3 2 2 1 1 2 2 2 3 2 2 3 3 3 3 3 2 1 0 1 2 3 4 5 5 5 5 6 7
8 8 8 8 9 9 9 8 8 7 6 5 4 4 3 2 2 1 1 1 2 2 3 2 2 2 3 2 3 3 2 2 1 0 1 2 3 4 5 6 6 6 7
8 8 8 9 8 9 8 8 8 7 6 6 4 4 3 2 2 1 0 1 2 2 3 3 2 2 2 2 2 2 1 1 1 1 1 1 2 4 5 6 6 7 7
9 8 9 9 8 9 8 8 8 7 6 6 5 4 3 2 2 2 1 0 1 2 3 3 3 3 2 2 2 1 1 1 1 1 1 2 2 3 4 5 6 7 8
9 9 9 9 9 9 9 9 9 7 6 6 5 5 4 4 4 3 2 1 0 2 2 2 3 3 3 2 2 2 1 1 2 2 1 2 3 3 4 4 5 6 7
10 9 9 9 10 10 10 9 9 8 8 8 6 6 5 5 5 4 3 3 2 1 1 1 2 2 2 3 3 2 2 2 2 2 1 1 2 3 3 4 5 6 7
9 9 9 9 10 10 10 10 9 8 8 8 8 6 6 6 6 5 4 4 3 2 1 1 1 1 2 2 3 2 2 2 2 2 1 1 2 3 4 4 5 6 7
8 9 9 9 10 10 10 10 10 9 8 8 8 7 7 6 6 5 5 4 4 3 2 2 1 1 1 1 2 2 3 2 2 2 3 3 3 3 4 5 6 7 7
8 8 8 9 9 10 10 10 9 9 9 9 9 8 7 6 6 6 6 5 5 5 5 4 4 3 3 3 3 3 4 4 4 4 4 4 5 5 6 6 7 8 8
8 8 8 8 8 9 9 10 9 9 8 8 8 8 7 7 6 7 7 6 6 6 6 6 6 5 5 5 5 5 6 6 6 6 6 6 6 7 8 8 9 9 10
8 8 8 8 8 8 9 9 9 9 9 8 8 8 8 8 7 7 7 7 7 7 7 7 7 7 7 7 7 7 7 8 8 8 9 8 9 9 10 10 10 11 12
7 8 8 8 9 9 9 9 9 8 9 9 9 9 8 8 8 8 8 8 8 7 8 8 8 8 9 9 9 9 9 10 10 10 10 10 11 12 12 12 12 13 14
9 9 8 8 9 9 8 9 9 9 9 10 10 10 10 9 9 9 9 9 9 9 9 9 9 9 9 10 11 11 11 12 12 12 12 13 13 14 14 14 14 15 16
9 8 8 8 9 9 9 9 9 9 10 10 10 10 10 10 10 11 10 11 11 11 11 11 11 11 11 11 12 13 13 13 14 14 14 15 15 15 15 15 16 17 18
9 8 8 9 10 10 10 10 10 10 10 10 10 10 10 10 11 11 12 13 13 12 12 12 13 13 13 13 13 14 14 14 14 15 15 16 16 16 17 17 18 18 19
9 9 9 9 10 11 11 11 11 11 11 11 11 11 11 11 11 11 11 12 12 13 13 13 13 14 14 14 14 15 15 15 16 17 17 18 18 18 18 19 20 20 20
10 10 10 10 10 11 12 11 12 12 11 11 11 12 13 13 13 13 13 13 13 14 14 14 14 14 15 16 16 16 16 17 18 18 18 19 19 20 21 21 21 21 22
11 11 11 11 12 12 12 12 12 12 12 13 13 13 13 14 14 14 14 15 15 15 15 16 16 17 17 18 18 19 19 19 20 20 20 20 21 21 21 22 22 23 24
13 12 12 12 12 13 13 13 13 13 13 13 14 14 14 15 15 15 15 15 16 16 16 17 18 18 18 19 19 20 20 21 21 22 22 23 23 23 24 24 24 25 26
13 13 13 13 13 13 13 13 14 14 14 14 14 14 15 15 16 16 16 17 17 17 17 18 19 19 20 20 21 21 22 23 23 24 24 24 25 25 25 26 26 27 28
14 14 13 13 14 14 14 14 14 14 14 15 15 15 16 16 17 17 18 18 18 18 19 20 20 21 21 21 22 23 24 25 25 25 26 26 27 27 27 27 28 29 29
14 14 14 14 14 14 14 15 15 15 15 15 16 16 16 17 17 18 18 18 19 20 21 21 21 22 22 22 23 24 25 25 25 26 27 27 28 28 28 29 30 30 31
15 15 15 15 15 15 15 15 16 16 16 16 16 16 17 17 18 18 18 19 20 20 20 21 21 22 23 23 24 24 25 25 26 27 29 29 29 29 30 30 31 31 32
17 16 16 16 16 16 16 16 16 17 17 17 18 18 18 18 18 18 18 19 19 20 20 21 22 23 23 24 25 25 25 27 28 28 29 30 30 30 30 31 31 32 33
18 18 18 17 17 17 17 16 16 17 17 17 17 18 18 18 18 18 18 18 19 19 21 22 23 23 24 24 25 26 27 28 28 29 29 30 31 31 32 33 34 34 35

GEFSMW_500_meanwind_192.txt.gz
Wind_Speed
9 9 8 7 7 6 6 5 6 5 5 5 4 4 4 4 4 4 3 4 5 5 5 4 4 4 4 3 3 3 3 3 3 2 2 2 3 3 3 4 5 5 5
10 9 8 7 7 6 6 6 5 6 5 5 4 4 4 4 4 3 3 4 5 5 5 4 4 4 4 3 3 3 3 3 3 3 2 3 3 3 3 4 5 5 5
9 9 8 7 7 6 6 6 6 5 5 4 4 3 3 3 3 3 3 3 4 4 5 5 4 4 4 3 3 3 3 3 3 2 3 3 2 2 2 3 3 4 5
9 9 8 7 7 6 6 6 7 6 5 4 4 4 4 3 2 2 3 3 3 4 4 5 4 4 4 3 3 3 3 3 3 3 3 3 3 3 3 3 4 4 5
9 9 8 7 7 7 7 7 7 7 6 5 4 4 4 3 3 3 3 3 3 3 4 4 4 4 4 3 3 3 3 3 4 4 4 4 4 5 5 5 5 5 6
8 9 7 7 7 7 7 7 7 6 6 5 5 4 5 5 4 4 4 3 2 3 4 4 4 4 4 4 4 3 3 4 4 4 5 5 6 6 6 6 6 7 7
8 8 7 7 6 6 6 6 6 7 7 6 5 5 5 5 5 5 4 3 2 3 3 4 4 4 4 3 4 4 4 4 5 5 5 6 6 6 6 7 7 7 8
8 8 7 6 6 6 6 6 7 7 7 6 6 6 6 6 5 5 4 3 3 3 4 4 4 4 4 4 4 4 4 5 5 6 6 6 7 7 7 7 7 8 9
9 9 8 7 7 6 6 6 6 7 7 6 6 6 6 6 6 5 4 4 4 4 4 4 5 5 4 5 5 5 6 6 6 6 7 7 8 8 8 8 8 9 9
10 10 9 8 8 7 7 6 6 6 6 6 5 5 5 6 6 5 4 4 5 5 5 5 6 6 6 6 6 6 7 7 7 7 8 8 9 9 9 9 10 11 11
10 10 9 8 8 8 7 7 6 7 6 6 5 5 5 4 4 5 5 5 5 5 6 6 7 7 8 8 8 8 8 8 9 9 9 9 10 10 10 11 11 12 13
9 8 8 8 9 8 8 7 7 7 7 7 6 6 6 6 6 6 6 6 6 6 7 7 8 8 9 9 9 9 9 10 10 10 10 11 11 12 12 13 13 14 14
9 9 8 8 8 8 8 8 8 8 8 8 8 8 7 7 7 7 7 7 7 7 8 8 8 9 9 9 10 10 10 11 11 12 12 13 14 14 15 15 16 16 16
9 8 8 8 8 8 9 9 8 8 9 9 9 9 8 8 8 8 8 8 8 9 9 9 9 10 10 11 11 11 12 12 13 13 14 14 15 15 16 16 17 18 19
9 8 8 8 9 9 9 9 9 9 10 10 10 10 10 10 9 9 9 9 9 10 10 10 10 10 11 12 13 13 13 14 14 14 14 15 15 16 16 17 18 19 20
9 9 9 9 9 9 9 10 9 10 11 11 11 11 11 11 11 10 10 10 10 11 11 11 12 13 13 14 14 14 15 15 15 16 16 16 16 17 18 18 19 20 21
10 10 11 10 10 10 10 9 9 10 10 11 11 11 11 11 11 12 12 12 12 12 12 12 12 13 14 15 15 15 16 16 17 17 17 18 19 19 19 20 20 21 22
11 11 11 11 10 10 11 10 10 10 10 10 11 11 12 12 12 12 13 13 13 12 13 14 14 15 15 16 16 17 17 17 18 18 18 19 20 20 21 21 22 23 24
13 12 12 12 11 11 11 11 11 11 11 11 11 12 12 13 13 13 14 14 14 15 15 15 16 16 16 17 17 18 18 19 19 19 20 20 21 22 23 24 25 25 26
13 13 13 13 12 12 11 11 12 12 12 12 13 13 13 13 14 14 15 15 15 16 16 17 17 18 17 18 18 19 19 20 21 21 22 22 23 24 25 26 26 27 27
15 14 14 14 14 13 13 13 13 13 13 14 14 14 14 14 15 15 15 16 16 17 17 17 17 17 17 17 18 19 21 22 22 23 24 24 25 26 26 27 28 28 29
16 16 16 15 15 15 14 14 14 14 15 15 15 15 15 15 16 16 16 16 17 17 17 18 18 18 19 19 20 21 22 23 23 24 25 26 26 27 27 28 29 29 30
18 17 17 17 16 16 16 15 15 15 16 16 16 16 17 16 17 17 17 18 18 18 18 19 19 19 20 20 21 22 23 24 25 26 26 27 28 28 29 30 30 31 31
19 19 18 17 17 17 17 17 17 17 17 17 18 18 18 18 18 18 19 19 19 20 19 19 20 20 21 22 23 23 24 25 26 26 27 28 29 29 30 30 31 32 32
20 20 20 19 19 19 18 18 18 18 18 18 19 19 19 19 20 20 20 21 21 21 22 22 22 22 22 23 24 25 26 27 27 28 29 29 30 30 30 31 32 31 32
21 21 21 21 21 20 19 19 19 19 18 18 18 19 20 19 20 20 21 21 21 21 22 22 23 24 24 25 25 26 27 27 27 28 29 29 29 29 29 30 31 32 33

GEFSMW_500_meanwind_198.txt.gz
Wind_Speed
5 4 4 4 4 4 4 4 4 4 4 4 3 3 3 3 2 1 1 1 2 2 2 2 3 2 2 2 2 2 1 1 1 1 1 2 1 2 2 2 3 4 5
4 4 4 4 3 3 4 4 3 3 3 3 3 3 3 3 2 1 1 1 2 1 2 2 2 2 2 2 2 2 2 1 1 1 1 1 1 2 2 3 3 3 4
5 4 4 3 3 4 4 3 3 3 3 3 3 3 2 2 1 1 1 1 1 1 1 2 3 3 2 2 2 2 2 2 2 2 2 2 2 2 2 3 3 4 4
4 4 4 4 3 3 4 3 3 3 4 3 3 3 3 2 2 2 2 1 1 1 1 1 2 2 2 2 2 2 2 2 2 2 2 2 3 3 2 3 3 4 5
4 4 4 4 4 4 4 3 4 4 4 4 3 3 4 4 3 2 2 1 1 1 2 1 2 2 2 2 2 2 2 2 3 3 3 3 3 3 4 4 4 5 5
4 3 4 4 4 4 4 3 3 4 4 4 3 3 3 4 4 3 3 3 2 2 2 2 1 1 1 1 1 1 2 2 3 3 3 4 4 5 5 6 6 6 7
4 4 4 5 5 5 5 4 4 4 4 3 3 3 4 4 4 4 4 3 3 2 2 2 2 2 2 2 2 2 2 3 4 4 4 5 5 5 6 7 7 7 8
5 4 5 5 5 5 5 5 5 4 4 4 3 3 2 3 4 4 4 4 3 3 3 3 3 3 3 3 3 3 4 4 5 5 6 6 6 6 6 7 8 9 9
6 6 6 5 5 5 5 4 4 5 5 5 4 3 2 2 2 3 4 4 4 4 4 3 3 3 4 4 4 5 5 5 6 6 6 6 6 7 7 7 8 8 8
6 6 6 5 5 5 5 4 5 5 5 5 4 3 3 3 3 3 3 4 4 4 4 5 5 5 5 5 5 6 6 6 6 6 7 7 7 7 7 7 8 9 10
6 6 5 5 5 5 5 5 5 6 6 6 5 5 4 4 5 4 4 4 4 4 5 5 5 5 5 6 6 6 7 7 7 7 8 8 8 8 9 10 11 11 12
6 6 6 6 6 6 6 6 6 6 7 7 6 6 6 6 6 6 6 6 6 6 6 6 6 6 6 6 7 7 7 8 8 8 9 9 10 10 11 12 13 13 14
7 6 6 7 7 7 7 7 7 7 7 7 7 7 7 7 7 7 7 7 7 7 8 7 8 8 8 8 8 9 9 9 10 10 10 11 12 13 13 14 14 15 15
7 7 7 7 7 7 7 7 7 8 8 8 8 8 9 8 8 8 8 8 8 8 9 9 9 9 9 9 10 10 10 11 12 13 13 14 14 15 15 15 16 16 17
7 7 7 7 8 8 8 8 9 9 9 9 9 9 9 9 9 9 9 9 9 9 9 10 10 11 11 12 12 12 13 13 14 14 15 15 16 16 16 17 18 18 18
7 7 7 7 8 8 8 8 9 10 10 10 10 10 10 10 10 10 10 10 10 11 11 11 11 12 12 13 14 14 14 14 14 15 15 16 17 17 18 18 19 19 20
8 8 8 8 8 8 8 9 9 10 10 11 10 10 11 11 11 11 12 12 12 12 12 12 13 13 14 14 14 14 14 14 15 16 17 18 18 18 19 19 20 20 20
10 9 9 8 9 9 10 10 10 11 11 11 11 11 12 12 12 13 13 13 13 13 13 14 14 15 15 14 14 15 15 16 17 17 18 18 18 19 20 21 21 22 22
11 11 10 10 10 10 11 11 12 12 12 12 12 12 12 12 13 13 13 13 14 14 15 14 15 15 16 16 16 16 16 17 17 18 19 19 20 21 22 22 23 24 25
13 12 11 11 11 11 13 13 13 12 12 13 14 14 13 13 13 14 15 14 15 15 15 16 16 16 17 17 18 18 18 18 19 20 21 21 22 23 23 24 25 26 27
14 14 13 13 13 14 14 14 14 14 14 14 15 15 14 14 14 14 15 15 16 16 16 17 17 17 17 18 18 18 19 21 21 22 23 23 24 24 24 25 26 27 27
17 16 15 15 15 15 16 16 16 16 16 16 16 16 16 16 15 16 16 17 17 17 18 18 18 18 18 19 19 19 20 21 22 23 25 25 25 25 25 26 27 28 29
18 18 17 16 15 15 16 17 17 17 17 17 17 17 17 17 17 17 17 18 18 18 19 19 19 19 19 20 21 21 22 23 24 24 25 25 25 25 26 26 27 28 28
19 19 18 18 17 16 16 17 17 18 18 18 18 17 17 18 18 18 19 19 19 19 19 20 20 21 21 21 22 22 23 24 24 24 24 24 25 26 26 27 28 29 30
21 20 20 20 19 18 18 17 18 18 19 19 19 19 19 19 19 19 19 20 20 19 20 20 21 21 21 22 23 23 23 23 24 24 24 25 26 27 27 28 29 30 30
21 22 21 21 20 19 19 19 19 19 19 19 19 20 20 20 20 19 19 20 19 20 21 21 22 22 22 23 23 23 23 23 24 24 25 26 27 28 28 29 29 30 30

GEFSMW_500_meanwind_204.txt.gz
Wind_Speed
5 4 4 3 3 3 3 4 4 4 4 4 3 3 2 3 3 3 2 2 2 2 2 2 2 2 2 2 2 2 2 2 2 2 2 2 2 3 3 3 4 5 6
4 4 4 3 3 3 4 4 4 4 4 4 4 3 3 2 3 3 3 3 2 2 2 2 2 1 2 2 2 2 2 2 2 2 2 2 2 3 3 4 4 4 5
4 4 4 3 3 3 3 4 4 3 4 4 3 4 3 3 3 3 3 3 3 3 2 2 2 2 2 2 2 3 3 2 2 2 2 2 3 3 4 4 5 5 5
4 4 4 4 4 3 3 3 3 3 3 3 4 4 3 4 4 3 3 2 2 3 2 2 2 2 3 3 3 3 4 3 3 3 3 3 3 3 3 4 5 5 5
5 4 4 4 4 4 3 3 3 3 3 3 3 4 4 4 4 4 4 3 3 3 3 3 3 3 4 4 4 4 4 4 4 4 4 4 4 4 4 4 5 5 6
5 5 5 5 5 5 4 3 3 3 3 3 3 3 3 3 3 3 4 4 4 3 4 4 4 4 5 4 4 4 5 4 4 4 4 5 5 5 5 5 6 6 7
6 6 6 6 5 5 4 4 3 3 3 3 3 3 2 2 2 2 3 4 4 3 3 4 4 5 5 4 4 5 5 5 5 5 6 6 6 6 6 7 7 7 8
6 6 6 6 6 5 4 4 4 4 3 3 3 3 3 3 2 3 3 3 3 3 3 3 4 4 4 4 4 5 5 5 6 6 6 7 7 7 7 8 8 9 9
8 8 7 7 7 6 5 5 5 4 4 4 4 4 3 3 2 3 3 3 4 3 3 3 3 4 4 4 5 6 5 5 6 6 7 7 7 7 7 8 9 9 9
9 9 8 7 7 7 7 7 6 5 5 5 5 5 4 3 3 2 3 4 4 4 4 4 4 4 5 5 6 6 6 6 6 7 7 7 8 9 8 9 9 10 10
8 8 8 8 8 8 7 7 6 6 5 5 5 5 5 4 3 3 4 4 4 4 5 5 5 5 6 7 7 7 7 7 8 8 8 9 9 10 9 10 11 12 13
7 8 8 9 9 8 8 8 7 6 6 5 6 6 6 6 5 4 4 5 5 5 6 6 6 6 6 7 8 8 8 8 9 9 10 10 10 11 11 12 13 13 14
8 8 9 9 8 8 8 8 7 7 7 6 6 7 7 7 7 6 6 6 6 6 6 7 7 8 8 8 8 9 9 9 10 10 11 11 12 13 14 15 15 15 16
9 9 9 8 8 8 9 9 8 8 8 8 7 7 7 8 9 9 8 8 8 7 8 8 8 9 10 10 10 10 10 10 11 12 12 13 14 15 15 16 16 17 17
9 9 9 8 9 9 9 9 9 9 10 9 9 8 8 8 9 9 9 9 9 10 10 10 10 11 11 12 12 12 12 13 13 13 14 14 15 16 16 17 17 18 18
10 10 10 10 10 10 10 10 10 10 10 10 10 9 9 10 10 10 10 11 11 11 12 12 12 12 12 13 13 13 14 14 14 15 15 15 16 17 17 18 19 19 20
11 11 11 11 11 11 11 11 11 12 12 11 11 10 11 11 11 11 11 12 12 11 12 13 13 14 14 14 14 15 15 15 15 16 16 16 17 17 18 19 20 20 21
13 13 13 13 13 12 12 12 12 12 12 12 12 12 12 12 12 12 13 13 13 13 13 13 13 14 15 15 16 16 17 17 17 17 17 17 18 19 20 21 21 22 23
14 14 14 14 13 13 13 14 14 13 13 13 14 14 14 13 14 14 14 14 14 15 15 14 14 15 16 17 18 18 18 18 19 19 19 20 21 21 21 22 23 24 25
16 15 15 15 15 14 14 14 14 14 14 14 14 14 14 14 15 15 15 16 16 16 16 16 16 17 17 18 18 18 19 19 19 20 20 21 21 22 23 24 24 25 26
17 16 16 15 15 15 15 15 15 15 15 15 15 14 15 15 16 16 17 17 17 17 17 17 17 17 18 18 19 20 20 20 20 20 20 21 22 22 23 24 25 25 26
19 18 17 17 16 16 16 16 16 15 15 16 17 16 16 16 17 17 17 18 18 18 18 18 19 19 19 20 20 20 20 20 20 20 21 22 23 23 24 25 25 26 26
21 20 20 19 19 19 18 17 17 17 16 17 17 17 17 18 18 18 18 19 18 18 19 19 20 20 20 20 19 19 20 21 21 21 22 23 24 24 25 25 26 27 28
22 21 21 21 20 20 20 19 20 19 19 18 18 19 19 18 19 19 19 19 19 19 19 20 20 20 20 20 19 20 21 21 22 22 23 24 25 25 25 26 27 28 29
22 23 23 23 23 22 22 22 22 22 21 21 21 20 19 19 19 19 19 19 19 19 20 20 20 20 20 20 20 22 22 23 24 24 24 25 26 26 27 27 28 29 30
23 23 24 24 24 24 23 23 23 23 23 23 22 21 21 21 20 20 20 20 19 20 20 21 21 21 22 22 23 23 24 25 25 26 26 27 27 28 28 28 29 30 31

GEFSMW_500_meanwind_210.txt.gz
Wind_Speed
6 6 5 4 4 4 5 5 5 5 5 4 4 4 4 5 5 4 3 3 3 2 2 1 1 1 1 1 2 2 3 3 2 3 3 2 3 3 3 5 5 6 7
6 6 5 5 5 5 5 5 5 5 5 5 5 5 4 4 5 5 4 4 4 3 2 2 2 1 1 2 1 2 3 3 3 2 3 2 3 4 4 4 5 5 6
6 6 5 5 5 5 5 5 5 5 5 6 5 5 5 4 5 5 5 5 5 4 3 3 2 2 2 2 3 3 3 3 3 3 3 3 3 4 4 4 5 5 5
6 5 5 6 6 6 6 6 5 5 5 5 4 5 5 5 5 5 5 5 5 4 3 3 3 3 3 3 3 3 3 3 3 3 4 4 4 4 5 4 5 5 5
6 6 6 6 6 6 6 6 5 5 5 5 4 4 5 4 5 4 4 4 4 4 4 4 4 4 3 3 3 4 4 4 3 3 4 4 5 5 5 5 6 6 6
6 6 6 6 6 6 6 5 5 5 5 5 5 5 5 5 5 4 4 4 4 5 4 4 4 4 4 4 4 4 4 4 4 4 4 5 5 5 6 6 6 6 7
6 6 7 7 6 6 6 6 6 5 6 6 5 5 5 5 5 4 4 4 4 4 5 4 4 4 5 4 5 5 5 5 5 5 5 5 5 5 6 6 7 8 8
7 7 7 7 7 7 6 6 6 6 6 6 5 5 5 5 5 5 4 5 5 5 5 5 4 5 5 5 5 5 5 5 5 5 5 5 6 6 7 7 8 8 9
7 8 8 8 7 7 7 7 6 6 6 6 5 5 5 5 5 5 5 5 5 5 5 5 5 5 5 5 5 5 5 6 6 5 6 6 7 7 7 8 9 9 10
7 8 8 8 8 7 8 7 7 6 6 6 6 6 6 5 5 5 5 5 5 5 4 5 5 6 6 5 5 5 5 6 6 6 6 7 8 8 9 10 10 11 11
8 8 8 8 8 8 8 8 7 6 6 6 7 7 6 6 6 6 6 5 5 5 4 4 5 5 6 5 5 6 6 6 7 7 8 8 9 9 9 10 11 12 12
9 9 8 9 9 9 9 8 7 7 7 7 7 7 7 7 7 6 6 6 6 5 5 5 5 5 5 6 6 7 7 7 7 8 9 10 10 11 11 12 12 13 13
10 9 9 10 10 9 9 9 9 9 9 8 9 9 8 8 7 7 7 7 7 7 6 6 6 6 7 7 8 8 8 9 9 10 11 11 12 13 13 14 15 15 15
10 11 10 10 11 11 11 10 10 10 10 10 10 10 10 9 9 9 8 8 8 8 7 8 8 8 8 9 10 9 10 10 10 11 12 13 14 15 15 16 16 17 17
11 11 11 11 11 11 12 11 11 11 11 10 10 11 11 11 10 10 10 9 9 8 9 9 10 10 10 10 11 11 11 12 12 13 13 14 15 15 16 16 17 17 17
11 11 11 12 12 12 12 13 12 12 12 11 11 12 12 11 11 11 11 11 11 10 11 12 12 11 12 12 12 13 13 14 14 14 14 15 15 16 16 17 17 18 18
13 12 12 12 12 12 13 14 14 13 12 12 12 12 12 12 12 12 12 12 12 12 13 14 14 14 14 14 15 15 15 15 15 15 16 16 16 17 17 18 18 18 18
14 14 14 13 14 14 14 14 14 14 13 13 13 13 13 13 13 12 13 13 13 13 13 14 15 15 16 16 16 16 16 16 16 15 16 17 17 18 18 18 18 18 19
15 15 15 15 15 15 15 16 16 15 14 14 14 14 14 14 14 14 14 14 14 14 15 15 15 16 16 16 17 17 16 16 16 16 17 17 18 18 18 18 19 19 20
16 16 16 16 16 17 17 17 17 16 16 15 16 15 15 16 16 16 16 15 15 16 16 16 16 16 16 16 17 17 16 16 17 17 18 18 18 19 19 19 20 20 21
17 18 18 17 17 17 18 18 18 18 18 17 17 17 17 17 17 18 17 17 17 17 17 17 16 16 16 17 17 17 17 17 17 18 19 19 19 20 20 21 21 22 23
18 19 19 19 19 19 19 19 18 18 19 18 18 18 18 18 18 19 19 18 18 18 17 17 17 18 18 17 17 17 18 18 19 20 20 20 20 21 22 22 22 23 24
20 20 21 20 20 20 20 19 19 19 20 20 20 20 20 20 20 19 20 19 19 19 19 18 18 18 19 18 18 18 19 19 20 20 20 21 22 22 23 23 24 25 26
21 21 22 22 21 21 20 20 20 20 20 21 21 21 22 21 21 21 20 19 19 19 20 20 19 19 19 19 19 19 20 20 20 21 22 23 24 25 26 26 26 26 27
23 23 23 23 23 22 22 22 21 21 21 21 21 21 22 22 22 21 20 20 19 20 20 20 20 20 20 20 21 21 22 22 23 24 24 24 25 26 26 26 27 27 27
23 23 24 24 24 23 23 23 23 22 22 22 23 23 23 23 23 22 22 22 22 22 21 21 21 21 22 22 22 23 23 24 24 25 25 25 25 25 26 27 27 28 28

GEFSMW_500_meanwind_216.txt.gz
Wind_Speed
8 8 7 6 6 7 7 7 7 7 7 7 6 6 6 6 5 5 5 5 5 4 4 3 3 4 4 4 5 5 5 6 5 5 5 5 5 5 5 6 6 7 7
8 7 8 7 7 7 8 8 7 7 7 7 6 7 6 6 6 6 6 5 5 4 5 4 3 4 4 4 5 5 6 6 5 5 5 5 5 5 6 6 6 6 6
8 7 7 7 7 8 8 8 7 6 7 7 6 6 6 6 6 6 6 5 5 5 5 4 4 4 4 4 4 4 5 5 5 4 4 4 5 5 7 6 6 6 6
9 8 7 7 7 8 8 7 7 7 7 7 7 7 7 6 6 6 6 5 6 5 5 5 4 3 3 4 4 5 5 5 5 6 6 6 6 5 5 5 5 5 5
9 9 9 8 8 8 8 8 7 7 8 8 7 7 7 7 7 6 6 6 6 6 5 5 4 4 4 5 5 5 5 5 6 6 7 7 7 6 5 4 5 5 5
10 9 9 9 9 9 9 8 8 8 8 8 8 8 8 7 7 6 6 5 6 6 6 5 5 4 4 5 5 5 5 6 6 7 7 7 7 7 6 6 6 6 7
10 10 9 9 9 9 9 9 8 8 8 8 8 8 8 7 6 6 5 6 6 6 6 6 5 5 6 6 6 6 6 6 7 7 7 7 7 7 7 8 8 8 9
11 10 9 9 9 10 9 9 8 9 8 8 8 8 7 7 7 6 6 6 6 6 6 6 6 7 7 7 7 7 7 7 7 7 7 7 7 8 8 8 8 9 9
11 10 10 10 10 10 9 9 9 9 8 9 9 8 7 7 7 7 6 6 6 6 6 6 7 7 7 7 7 7 8 8 8 7 7 7 8 9 9 9 9 9 10
11 10 11 10 11 11 10 10 10 9 8 9 9 8 8 7 7 7 7 6 6 7 7 7 7 7 8 7 7 7 8 8 8 8 8 8 9 9 9 10 10 10 11
11 11 12 11 11 11 10 10 10 10 9 9 9 9 8 8 8 8 7 7 7 7 7 7 7 7 7 7 7 8 8 8 8 8 9 9 9 10 10 11 11 12 12
12 12 12 12 11 11 11 11 10 10 10 9 9 9 8 8 8 8 8 7 7 7 7 7 8 7 7 8 8 8 8 9 9 9 10 10 11 11 11 12 12 13 14
13 12 12 12 12 12 12 12 11 10 10 10 9 9 10 9 9 9 8 8 8 8 8 8 8 8 8 9 9 9 10 10 11 11 12 12 12 13 13 13 14 14 15
13 13 13 13 13 13 13 12 12 11 10 11 10 11 11 11 10 9 9 9 9 9 9 9 9 9 10 10 10 11 11 12 12 13 13 13 13 14 14 14 15 15 15
14 13 13 13 13 13 12 12 12 11 11 11 12 11 12 12 11 10 10 10 10 10 10 10 10 11 11 11 12 13 13 14 14 14 13 13 14 14 15 15 15 15 16
15 15 15 14 13 13 13 12 12 12 13 13 13 13 13 12 12 11 11 11 12 12 11 11 12 12 12 13 13 14 14 14 14 15 15 15 15 15 15 16 16 16 17
16 17 16 15 14 14 14 14 13 14 14 14 14 14 14 13 13 13 13 13 13 13 13 13 14 14 14 14 15 15 15 15 15 15 16 16 16 16 16 17 17 18 19
18 17 17 16 16 15 15 15 15 15 15 15 16 16 15 14 14 14 14 14 15 15 15 15 15 15 16 16 16 16 16 16 16 17 17 17 17 17 17 18 19 20 20
18 18 17 17 17 16 16 16 16 16 16 16 16 16 16 16 16 16 16 15 16 16 16 16 16 16 17 17 17 17 17 16 16 17 17 18 18 18 19 20 20 20 20
18 18 18 18 18 17 17 17 18 18 17 17 17 17 17 17 17 17 17 17 17 17 17 17 17 17 17 17 18 18 17 17 17 18 19 19 19 19 20 20 21 21 21
19 19 19 19 19 18 18 19 19 19 18 19 19 18 18 19 19 19 19 19 19 19 19 19 19 19 19 18 18 18 18 19 20 19 19 19 20 20 21 21 22 22 23
20 20 20 20 20 20 20 20 21 21 20 20 20 19 19 20 20 20 20 21 21 21 21 20 20 20 20 20 19 19 20 20 20 20 20 20 21 21 22 23 24 24 24
22 21 21 21 20 21 21 22 22 22 22 21 21 21 21 21 21 21 22 22 22 23 23 22 22 21 21 20 20 21 21 21 21 21 22 22 23 23 23 24 25 25 25
23 23 22 21 21 22 22 22 22 23 22 22 22 22 22 23 23 23 23 24 23 23 24 23 23 22 22 22 22 22 22 23 23 24 24 24 24 24 25 25 25 26 26
24 24 23 22 22 23 23 24 23 23 23 22 22 23 23 24 24 24 24 24 25 24 24 24 24 24 23 23 24 24 24 25 25 25 26 25 25 25 25 25 26 26 26
25 25 24 24 24 24 24 24 24 24 24 23 23 24 24 25 25 24 25 25 26 26 26 26 27 27 26 25 25 25 25 25 25 26 26 26 26 26 26 26 26 26 27

GEFSMW_500_meanwind_222.txt.gz
Wind_Speed
5 5 5 5 5 4 5 5 5 5 5 4 3 3 3 4 4 4 4 5 4 4 4 4 4 4 4 4 4 4 4 4 5 5 4 5 5 5 5 5 6 6 7
6 6 5 5 5 5 5 5 6 5 5 4 4 4 4 4 4 4 4 5 5 4 4 3 3 3 4 4 4 5 4 5 5 5 4 4 4 4 5 5 5 5 5
5 5 5 6 5 5 5 6 5 5 5 4 4 4 4 4 5 5 4 4 4 4 4 3 3 3 4 4 4 5 5 4 5 5 5 5 4 4 4 5 5 4 4
5 5 6 6 6 6 6 6 6 6 5 4 5 5 4 4 5 5 5 5 4 4 4 4 4 4 4 4 4 5 5 4 4 5 5 5 4 4 4 5 4 4 4
6 6 7 7 7 7 7 6 6 6 5 5 6 5 5 5 5 5 5 5 4 4 4 4 4 4 4 4 4 5 5 5 5 5 5 4 5 5 4 5 5 5 5
7 7 7 7 7 7 7 7 7 6 6 6 6 6 6 6 6 5 5 5 5 5 5 5 4 5 5 4 4 5 5 6 5 4 4 4 5 4 5 5 5 5 6
7 7 7 7 7 7 7 7 7 7 7 7 7 7 7 7 6 6 5 5 5 5 5 6 6 6 6 5 5 5 5 6 6 5 4 4 5 5 6 6 6 6 7
7 7 7 7 7 8 7 7 7 7 7 8 8 7 8 8 7 6 6 6 6 6 6 7 6 6 6 6 6 6 6 6 6 5 5 5 6 6 6 6 7 7 7
7 7 7 7 7 7 7 7 7 7 8 8 8 8 8 8 7 6 6 6 7 7 7 7 6 6 6 6 6 6 6 6 6 6 6 6 6 5 6 6 6 7 7
8 8 8 8 8 7 7 8 8 8 8 9 8 8 8 7 7 7 7 6 7 7 7 7 7 6 7 7 6 6 6 7 7 7 7 7 7 7 7 7 7 7 7
8 9 9 9 9 9 9 9 9 9 9 9 9 8 7 7 8 7 7 7 7 7 7 8 7 7 7 7 7 7 7 8 8 8 8 8 8 8 8 9 9 9 9
10 9 9 9 10 10 10 10 10 10 10 9 9 8 8 8 8 8 8 7 7 7 7 7 7 7 7 8 8 8 8 8 8 8 9 9 9 9 9 10 10 10 10
10 10 10 10 10 10 10 10 11 10 10 10 9 9 9 9 9 9 8 8 7 8 8 7 8 8 8 8 9 9 9 9 9 9 10 10 10 10 10 10 11 11 12
10 10 10 10 11 11 11 12 12 12 11 11 11 11 11 11 10 10 9 9 9 9 9 9 9 9 10 10 10 10 10 10 11 11 11 11 11 11 11 12 12 13 14
11 11 11 11 12 12 12 12 12 12 12 12 12 12 12 12 11 11 11 11 11 10 10 11 11 11 11 12 12 11 11 11 11 12 12 12 12 13 13 13 14 14 15
13 13 13 13 13 13 13 13 13 13 12 11 12 12 13 12 12 12 12 12 12 12 12 12 12 12 12 13 13 13 13 13 13 13 13 13 13 14 14 14 15 16 16
15 15 15 14 14 14 14 14 14 13 13 13 12 13 14 14 14 14 14 14 14 13 14 14 14 14 14 14 15 15 15 15 14 14 14 14 14 14 15 16 16 17 18
15 15 15 15 15 14 14 14 14 14 14 14 14 14 15 16 16 16 15 15 15 15 15 15 15 15 16 16 17 17 17 17 17 16 16 16 16 16 17 17 17 18 18
16 16 16 16 16 15 15 15 15 15 15 15 15 15 16 16 17 17 17 17 16 16 17 17 17 17 17 17 17 17 18 18 18 17 17 17 17 17 18 18 19 19 20
17 17 17 17 17 16 15 15 16 16 15 15 15 16 16 16 16 17 17 18 18 17 18 18 18 18 18 18 18 18 18 18 19 19 19 18 18 19 19 20 20 20 21
18 18 17 17 17 17 16 16 16 16 16 16 16 16 16 17 17 17 18 18 18 18 19 19 19 19 19 19 20 20 20 20 21 21 20 20 20 20 20 21 21 22 22
19 19 19 18 18 18 18 18 18 17 17 17 18 18 17 18 17 18 18 19 19 19 20 20 20 21 21 21 22 22 22 22 22 22 22 22 22 22 22 23 23 23 23
20 20 21 20 19 19 19 20 20 19 19 19 19 19 19 19 19 19 19 20 21 21 21 22 22 23 23 22 23 23 23 23 24 24 24 24 24 24 24 24 24 24 24
21 22 22 21 21 20 20 20 20 20 20 20 20 20 20 20 20 20 21 21 22 22 22 23 23 23 24 24 24 24 24 25 25 26 26 26 26 25 26 26 25 25 25
22 23 22 22 22 21 21 20 21 21 21 22 22 22 22 22 22 22 22 23 23 24 24 24 24 24 24 24 25 25 26 26 26 26 26 26 26 26 26 26 26 26 27
24 23 23 23 23 23 22 22 23 23 23 24 24 24 23 24 24 24 24 25 25 26 26 26 25 25 25 25 26 26 27 27 27 27 27 27 27 27 27 27 27 27 27

GEFSMW_500_meanwind_228.txt.gz
Wind_Speed
5 4 4 3 3 3 3 4 4 5 4 4 4 5 5 5 5 4 4 4 3 4 3 4 4 4 5 5 6 6 6 5 5 6 6 6 6 7 7 7 7 8 8
4 4 4 4 3 4 4 4 4 4 4 4 5 5 5 5 5 5 5 4 4 4 4 4 4 4 5 5 5 5 5 5 6 6 6 6 6 7 7 7 7 7 7
5 5 4 4 5 5 5 5 5 5 5 5 5 5 5 5 6 6 5 4 4 4 4 4 4 5 5 5 5 5 5 5 5 6 6 6 6 6 6 6 6 7 7
5 5 5 5 5 6 5 6 6 6 6 6 5 6 6 6 6 6 5 5 5 5 4 5 5 5 5 5 5 6 6 6 6 6 6 6 6 6 7 7 7 7 7
5 5 6 6 6 6 6 6 6 6 7 7 7 7 7 7 7 7 6 6 6 5 5 5 6 6 6 6 6 6 6 6 6 6 6 5 6 6 7 7 7 8 8
6 6 6 6 6 6 6 7 7 7 7 8 7 7 7 7 8 7 7 7 7 7 7 6 6 6 6 6 6 6 6 6 6 6 6 6 6 6 6 7 7 8 8
7 7 7 6 6 6 7 7 7 7 7 8 8 7 7 7 7 7 7 7 7 8 8 7 7 7 7 7 7 6 6 6 6 7 7 7 7 7 6 6 7 8 8
7 7 7 6 7 7 7 7 7 7 7 8 7 7 7 7 7 7 7 8 8 8 9 8 8 8 8 8 7 7 7 7 7 7 8 8 7 7 7 7 7 8 8
7 7 7 7 7 7 7 7 7 8 8 8 8 8 8 8 8 8 8 8 8 9 9 9 9 8 8 8 8 7 7 7 7 8 9 9 8 8 8 9 8 8 9
8 7 7 7 7 7 8 8 8 9 9 9 9 9 9 9 9 9 9 9 9 10 9 9 9 9 9 8 8 8 8 8 8 9 9 9 9 10 10 10 10 10 10
9 8 8 8 9 8 8 8 9 9 10 9 9 9 9 10 10 10 9 9 9 9 9 10 10 10 10 10 10 10 10 10 10 10 10 10 10 11 11 11 10 10 10
10 10 10 10 10 10 9 9 10 10 11 11 10 10 11 11 11 11 10 10 10 9 9 10 10 10 10 11 11 11 11 11 11 11 11 11 11 11 11 12 12 11 12
11 11 11 11 11 11 11 11 11 11 12 12 12 12 12 12 12 12 11 11 11 10 10 10 11 11 11 11 12 12 12 12 12 12 12 12 13 12 12 13 13 13 13
12 12 12 12 12 12 12 12 12 12 12 13 13 13 13 13 13 12 12 11 11 11 11 11 12 12 12 12 13 13 13 13 13 13 13 13 14 14 14 14 14 14 14
13 13 13 13 14 13 13 14 14 14 14 14 14 13 13 13 13 13 12 12 12 12 12 13 13 13 13 14 14 14 14 14 14 14 14 14 15 15 16 16 16 17 16
15 15 15 14 15 15 14 15 15 15 15 14 14 14 13 13 13 13 13 13 13 13 13 14 15 15 16 16 15 15 16 15 15 15 15 16 17 17 18 18 18 18 18
15 15 15 15 15 16 16 16 16 15 15 15 14 14 14 14 13 13 13 13 13 14 14 15 15 16 16 16 16 16 17 16 16 16 17 17 18 19 19 19 19 19 19
16 16 15 15 16 16 17 17 17 16 15 15 15 14 14 14 14 13 13 14 14 14 15 15 16 16 17 17 17 17 17 17 17 18 18 19 19 20 20 20 20 21 21
17 17 17 17 17 18 18 18 18 17 16 16 15 15 15 15 15 15 15 15 15 16 16 16 16 16 17 18 19 19 19 19 19 19 20 20 20 20 20 21 21 21 22
18 18 19 19 19 19 19 19 19 19 18 17 16 16 16 16 17 17 17 17 18 18 18 17 18 18 18 19 20 20 20 21 21 21 21 21 21 21 22 22 23 22 22
20 20 20 20 20 20 20 20 20 20 19 18 17 17 17 18 18 19 19 20 19 19 19 19 20 20 20 21 21 21 21 21 22 22 22 21 22 22 23 23 24 24 24
22 22 21 21 21 21 21 21 21 21 20 19 19 19 19 20 20 20 20 20 20 20 21 21 21 22 22 22 22 22 22 23 24 23 23 22 23 23 24 24 25 25 25
23 23 23 22 22 22 22 22 22 21 21 21 21 21 21 22 21 21 22 22 21 21 22 23 23 23 23 23 22 22 23 23 24 24 24 24 25 24 24 25 26 26 26
25 24 24 23 22 22 23 22 23 22 22 22 22 23 23 22 22 23 23 23 23 23 24 24 25 25 25 25 25 25 25 25 25 25 26 26 26 26 26 26 27 27 27
26 25 25 25 24 23 23 23 23 24 23 24 24 24 24 23 24 24 24 24 24 25 26 26 26 26 26 27 26 27 27 27 27 27 27 27 28 28 28 28 28 28 28
26 25 25 25 24 24 24 24 24 25 25 25 25 25 25 25 26 26 26 26 26 26 27 27 28 28 28 28 28 28 28 29 29 29 29 29 29 29 29 29 29 29 29